Tracking 18852 objects as of 23-Nov-2017
HD Live streaming from Space Station
objects crossing your sky now

COSMOS 2200

Track COSMOS 2200 now!
10-day predictions
COSMOS 2200 is classified as:


NORAD ID: 22037
Int'l Code: 1992-042D
Perigee: 1,411.0 km
Apogee: 1,422.5 km
Inclination: 82.6 °
Period: 114.0 minutes
Semi major axis: 7787 km
RCS: 1.0995 m2 (large)
Launch date: July 13, 1992
Source: Commonwealth of Independent States (former USSR) (CIS)
Launch site: PLESETSK MISSILE AND SPACE COMPLEX (PKMTR)
aabbcc
Your satellite tracking list
Your tracking list is empty




NASA's NSSDC Master Catalog

Two Line Element Set (TLE):
1 22037U 92042D   17326.38678525 +.00000035 +00000-0 +13422-3 0  9997
2 22037 082.5897 072.9473 0007341 206.5885 213.5067 12.63233692169159
Source of the keplerian elements: AFSPC